Terminal Aerodrome Forecast
Issued by NWS Norman, OK

Home | Current Version | Previous Version | Text Only | Print | Product List | Glossary On
Versions: 1 2 3 4 5 6 7 8 9 10 11 12 13 14 15 16 17 18 19 20 21 22 23 24 25
000
FTUS44 KOUN 050520
TAFOKC
TAF
KOKC 050520Z 0506/0606 15012KT P6SM BKN250
     FM051500 16015G23KT P6SM BKN040 PROB30 0520/0602 5SM -TSRA
      OVC030CB
     FM060200 15012KT P6SM OVC025
      TEMPO 0602/0606 4SM -TSRA OVC015CB=

USA.gov is the U.S. government's official web portal to all federal, state and local government web resources and services.